Harbor Springs, MI

11:24 AM EDT on October 17, 2017 (GMT -0400)
Harbor Springs

Weather History for KMGN - February, 2013

Change the Weather History Date:

Friday, February 22, 2013

  Actual Average (KPLN) Record (KPLN)
Temperature  
Mean Temperature 23 °F -  
Max Temperature 28 °F 32 °F 59 °F (2017)
Min Temperature 18 °F 13 °F -35 °F (1963)
Degree Days  
Heating Degree Days 42    
Moisture  
Dew Point 23 °F    
Average Humidity 90    
Maximum Humidity 94    
Minimum Humidity 84    
Precipitation  
Precipitation 0.00 in - - ()
Sea Level Pressure  
Sea Level Pressure 30.02 in    
Wind  
Wind Speed 10 mph (East)    
Max Wind Speed 20 mph    
Max Gust Speed 28 mph    
Visibility 6 miles    
Events Snow    
Averages and records for this station are not official NWS values.
T = Trace of Precipitation, MM = Missing Value Source: NWS Daily Summary

Daily Weather History Graph

Daily Weather History Graph

Search for Another Location

Airport or City:

Trip Planner

Search our weather history database for the weather conditions in past years. The results will help you decide how hot, cold, wet, or windy it might be!

Date:

Astronomy

Feb. 22, 2013 Rise Set
Actual Time 7:29 AM EST 6:17 PM EST
Civil Twilight 6:59 AM EST 6:47 PM EST
Nautical Twilight 6:25 AM EST 7:21 PM EST
Astronomical Twilight 5:51 AM EST 7:55 PM EST
Moon 3:22 PM EST (2/22) 5:20 AM EST (2/22)
Length of Visible Light 11h 47m
Length of Day
10h 47m
Waxing Gibbous, 90% of the Moon is Illuminated
Feb 22
Waxing Gibbous
Feb 25
Full
Mar 4
Last Quarter
Mar 11
New
Mar 19
First Quarter

Hourly Weather History & Observations

Time (EST) Temp. Windchill Dew Point Humidity Pressure Visibility Wind Dir Wind Speed Gust Speed Precip Events Conditions
12:15 AM 18.0 °F 8.7 °F 14.7 °F 87% 30.30 in 10.0 mi ENE 6.9 mph - N/A   Overcast
12:34 AM 18.0 °F 6.9 °F 14.7 °F 87% 30.28 in 10.0 mi ENE 9.2 mph - N/A   Overcast
12:55 AM 18.0 °F 7.7 °F 14.7 °F 87% 30.27 in 10.0 mi East 8.1 mph - N/A   Overcast
1:14 AM 18.1 °F 7.1 °F 14.7 °F 86% 30.26 in 10.0 mi East 9.2 mph - N/A   Overcast
1:34 AM 18.1 °F 6.3 °F 14.7 °F 86% 30.26 in 10.0 mi East 10.4 mph - N/A   Overcast
1:55 AM 18.5 °F 6.8 °F 15.3 °F 87% 30.27 in 10.0 mi East 10.4 mph - N/A   Overcast
2:14 AM 19.2 °F 7.0 °F 15.8 °F 87% 30.25 in 10.0 mi ENE 11.5 mph - N/A   Overcast
2:34 AM 20.3 °F 9.8 °F 16.7 °F 86% 30.25 in 10.0 mi ENE 9.2 mph - N/A   Overcast
2:55 AM 20.3 °F 9.8 °F 17.1 °F 87% 30.25 in 10.0 mi ENE 9.2 mph - N/A   Overcast
3:14 AM 20.3 °F 8.3 °F 17.4 °F 89% 30.23 in 7.0 mi ENE 11.5 mph - N/A   Overcast
3:35 AM 20.7 °F 9.5 °F 17.6 °F 88% 30.23 in 7.0 mi East 10.4 mph - N/A   Overcast
3:54 AM 21.6 °F 9.3 °F 18.9 °F 89% 30.21 in 7.0 mi ENE 12.7 mph 17.3 mph N/A   Overcast
4:14 AM 23.0 °F 10.6 °F 20.1 °F 89% 30.20 in 7.0 mi East 13.8 mph - N/A   Overcast
4:35 AM 23.0 °F 12.4 °F 19.9 °F 88% 30.18 in 10.0 mi ENE 10.4 mph 19.6 mph N/A   Overcast
4:54 AM 23.2 °F 10.3 °F 20.3 °F 89% 30.17 in 10.0 mi ENE 15.0 mph 19.6 mph N/A   Overcast
5:14 AM 23.4 °F 12.2 °F 21.0 °F 91% 30.17 in 10.0 mi ENE 11.5 mph 18.4 mph N/A   Overcast
5:35 AM 24.6 °F 10.5 °F 22.5 °F 91% 30.16 in 10.0 mi ENE 19.6 mph 24.2 mph N/A   Overcast
5:54 AM 24.6 °F 12.7 °F 22.6 °F 92% 30.16 in 7.0 mi ENE 13.8 mph 21.9 mph N/A   Overcast
6:14 AM 24.4 °F 11.5 °F 22.8 °F 94% 30.16 in 7.0 mi ENE 16.1 mph 21.9 mph N/A   Overcast
6:35 AM 24.6 °F 12.2 °F 22.8 °F 93% 30.16 in 7.0 mi East 15.0 mph 18.4 mph N/A   Overcast
7:14 AM 24.8 °F 13.4 °F 23.2 °F 94% 30.15 in 4.0 mi East 12.7 mph 20.7 mph N/A   Overcast
7:54 AM 25.5 °F 13.3 °F 23.9 °F 94% 30.13 in 5.0 mi ENE 15.0 mph 20.7 mph N/A   Overcast
8:14 AM 25.5 °F 12.9 °F 23.9 °F 94% 30.11 in 7.0 mi ENE 16.1 mph 20.7 mph N/A   Overcast
8:54 AM 25.5 °F 12.9 °F 23.7 °F 93% 30.08 in 10.0 mi ENE 16.1 mph 19.6 mph N/A   Overcast
9:54 AM 26.1 °F 12.7 °F 23.9 °F 92% 30.04 in 4.0 mi ENE 18.4 mph 27.6 mph N/A   Overcast
10:34 AM 26.4 °F 14.5 °F 23.7 °F 90% 30.03 in 4.0 mi ENE 15.0 mph 25.3 mph N/A Snow Light Snow
10:54 AM 25.9 °F 13.8 °F 23.7 °F 92% 30.01 in 0.2 mi ENE 15.0 mph 21.9 mph N/A Snow Snow
11:15 AM 27.9 °F 16.8 °F 25.7 °F 92% 30.00 in 0.5 mi ENE 13.8 mph - N/A Snow Snow
11:34 AM 28.0 °F 15.3 °F 25.7 °F 91% 29.99 in 1.0 mi ENE 18.4 mph - N/A Snow Light Snow
11:54 AM 28.0 °F 16.1 °F 25.5 °F 90% 29.97 in 0.8 mi ENE 16.1 mph 24.2 mph N/A Snow Light Snow
12:15 PM 28.0 °F 16.5 °F 25.3 °F 90% 29.96 in 0.8 mi ENE 15.0 mph 21.9 mph N/A Snow Light Snow
12:34 PM 28.0 °F 15.3 °F 25.3 °F 90% 29.96 in 0.8 mi ENE 18.4 mph 25.3 mph N/A Snow Light Snow
12:54 PM 28.0 °F 14.9 °F 25.3 °F 90% 29.94 in 0.8 mi ENE 19.6 mph 26.5 mph N/A Snow Light Snow
1:34 PM 28.0 °F 17.5 °F 25.3 °F 90% 29.93 in 0.5 mi ENE 12.7 mph 25.3 mph N/A Snow Snow
2:15 PM 28.0 °F 16.5 °F 25.3 °F 90% 29.91 in 1.8 mi ENE 15.0 mph 20.7 mph N/A Snow Light Snow
2:34 PM 28.0 °F 17.5 °F 25.3 °F 90% 29.91 in 2.5 mi East 12.7 mph 18.4 mph N/A Snow Light Snow
2:54 PM 28.2 °F 19.5 °F 25.5 °F 90% 29.91 in 2.0 mi East 9.2 mph - N/A Snow Light Snow
3:15 PM 28.4 °F 19.1 °F 25.5 °F 89% 29.90 in 1.8 mi East 10.4 mph - N/A Snow Light Snow
3:34 PM 28.4 °F 20.4 °F 25.7 °F 90% 29.89 in 1.5 mi East 8.1 mph - N/A Snow Light Snow
6:34 PM 28.2 °F 21.0 °F 23.9 °F 84% 29.86 in 10.0 mi East 6.9 mph - N/A   Overcast
6:54 PM 28.2 °F 22.0 °F 24.1 °F 84% 29.86 in 10.0 mi East 5.8 mph - N/A   Overcast
7:14 PM 28.2 °F 22.0 °F 24.3 °F 85% 29.86 in 10.0 mi ESE 5.8 mph - N/A   Overcast
7:34 PM 28.2 °F 22.0 °F 24.4 °F 86% 29.86 in 10.0 mi ESE 5.8 mph - N/A   Overcast
7:55 PM 28.0 °F 22.8 °F 24.3 °F 86% 29.86 in 10.0 mi ESE 4.6 mph - N/A   Overcast
8:14 PM 28.0 °F 22.8 °F 24.6 °F 87% 29.84 in 7.0 mi ESE 4.6 mph - N/A Snow Light Snow
8:34 PM 28.0 °F 22.8 °F 24.8 °F 88% 29.83 in 7.0 mi East 4.6 mph - N/A   Overcast
8:55 PM 28.0 °F 22.8 °F 24.8 °F 88% 29.83 in 10.0 mi East 4.6 mph - N/A   Overcast
9:14 PM 28.0 °F 24.2 °F 24.8 °F 88% 29.84 in 7.0 mi East 3.5 mph - N/A Snow Light Snow
9:34 PM 28.0 °F - 25.2 °F 89% 29.83 in 4.0 mi Calm Calm - N/A Snow Light Snow
9:55 PM 28.0 °F - 25.7 °F 91% 29.82 in 5.0 mi Calm Calm - N/A Snow Light Snow
10:14 PM 28.0 °F 24.2 °F 25.7 °F 91% 29.82 in 5.0 mi East 3.5 mph - N/A Snow Light Snow
10:34 PM 28.0 °F 24.2 °F 26.1 °F 92% 29.81 in 5.0 mi East 3.5 mph - N/A Snow Light Snow
10:55 PM 28.0 °F 24.2 °F 26.4 °F 94% 29.81 in 10.0 mi ENE 3.5 mph - N/A Snow Light Snow
11:14 PM 28.0 °F - 26.4 °F 94% 29.81 in 7.0 mi Calm Calm - N/A Snow Light Snow
11:34 PM 28.0 °F - 26.4 °F 94% 29.80 in 5.0 mi Calm Calm - N/A Snow Light Snow
11:55 PM 28.0 °F - 26.4 °F 94% 29.79 in 7.0 mi Calm Calm - N/A Snow Light Snow